Regional Weather Roundup
Issued by NWS Boston, MA

Home | Current Version | Previous Version | Text Only | Print | Product List | Glossary On
Versions: 1 2 3 4 5 6 7 8 9 10 11 12 13 14 15 16 17 18 19 20 21 22 23 24 25 26 27
000
ASUS41 KBOX 291110
RWRBOX

REGIONAL WEATHER ROUNDUP
NATIONAL WEATHER SERVICE TAUNTON MA
700 AM EDT THU JUN 29 2017

NOTE:  "FAIR" INDICATES FEW OR NO CLOUDS BELOW 12,000 FEET WITH NO
SIGNIFICANT WEATHER AND/OR OBSTRUCTIONS TO VISIBILITY.

MAZALL-291200-
EASTERN MASSACHUSETTS

CITY           SKY/WX    TMP DP  RH WIND       PRES   REMARKS
BOSTON         CLOUDY    67  55  65 SW13      30.11S
BEVERLY        CLOUDY    63  57  81 CALM      30.11R
LAWRENCE       CLOUDY    62  55  77 SW6       30.13R
BEDFORD        CLOUDY    62  54  74 MISG      30.11R
BLUE HILL        N/A     63  54  72 MISG      30.13R
NORWOOD        CLOUDY    65  58  78 SW7       30.12R
MARSHFIELD     PTSUNNY   64  59  82 VRB7      30.12S
PLYMOUTH       CLOUDY    62  58  86 S3        30.15R
TAUNTON        CLOUDY    65  57  75 SW7       30.14R
NEW BEDFORD    CLOUDY    65  59  81 SW8       30.14S
$$

MAZALL-291200-
CAPE COD AND THE ISLANDS

CITY           SKY/WX    TMP DP  RH WIND       PRES   REMARKS
FALMOUTH       PTSUNNY   66  63  88 SW8       30.16S
HYANNIS        MOSUNNY   67  62  84 SW9       30.14R
CHATHAM        CLOUDY    68  64  87 SW7       30.16R
PROVINCETOWN   CLOUDY    64  60  87 SW10      30.14R
NANTUCKET      PTSUNNY   65  63  93 W12       30.17R
MARTHAS VNYRD  MOSUNNY   67  61  81 W6        30.16S
$$

MAZALL-291200-
CENTRAL AND WESTERN MASSACHUSETTS

CITY           SKY/WX    TMP DP  RH WIND       PRES   REMARKS
WORCESTER      MOSUNNY   60  51  72 W10       30.14S
FITCHBURG      CLOUDY    63  55  75 CALM      30.12S
ORANGE         CLOUDY    54  54 100 CALM      30.13S
SPRINGFIELD    PTSUNNY   62  56  79 CALM      30.12S
WESTFIELD      CLOUDY    61  58  90 SE3       30.12
NORTH ADAMS    CLOUDY    54  52  93 CALM      30.13S
PITTSFIELD     CLOUDY    55  52  89 CALM      30.14S
$$

RIZALL-291200-
RHODE ISLAND

CITY           SKY/WX    TMP DP  RH WIND       PRES   REMARKS
PROVIDENCE     PTSUNNY   66  58  75 W9        30.15R
NEWPORT        PTSUNNY   66  60  81 VRB3      30.16R
BLOCK ISLAND   MOSUNNY   65  59  81 SW8       30.18R
WESTERLY       CLOUDY    66  62  87 VRB3      30.16S
$$

CTZALL-291200-
CONNECTICUT

CITY           SKY/WX    TMP DP  RH WIND       PRES   REMARKS
BRADLEY INTL   CLOUDY    65  54  67 S6        30.13S
HARTFORD       CLOUDY    65  57  75 S6        30.14S
BRIDGEPORT     CLOUDY    69  57  65 SW5       30.15S
DANBURY        SUNNY     64  54  68 W3        30.17
GROTON         CLOUDY    67  61  81 CALM      30.15S
NEW HAVEN      CLOUDY    67  57  70 CALM      30.15F
CHESTER        FAIR      64  55  72 CALM      30.16F
MERIDEN        PTSUNNY   61  58  90 CALM      30.15S
WILLIMANTIC    CLOUDY    59  56  89 CALM      30.16R
OXFORD         CLOUDY    61  52  72 CALM      30.16F
$$

MEZ002-015-021-024-NHZ003-005-008-011-012-014-VTZ005-008-291200-
NORTHERN NEW ENGLAND

CITY           SKY/WX    TMP DP  RH WIND       PRES   REMARKS
PORTLAND ME    PTSUNNY   60  54  80 SW3       30.09R
BANGOR ME      MOSUNNY   58  54  86 CALM      30.08R
CONCORD NH     CLOUDY    54  53  97 S3        30.11R
MANCHESTER NH  CLOUDY    59  51  75 CALM      30.09S
NASHUA NH      CLOUDY    59  56  89 CALM      30.11S
PORTSMOUTH NH  CLOUDY    60  54  79 CALM      30.09R
JAFFREY NH     CLOUDY    57  55  93 S6        30.14R
KEENE NH       CLOUDY    54  52  93 CALM      30.13S
BURLINGTON VT  CLOUDY    64  51  62 S9        30.06R
MT. WASHINGTON FOG       39  39 100 W40G48      N/A  VSB 1/16WCI  26
$$

NYZ052-076-291200-
EASTERN NEW YORK

CITY           SKY/WX    TMP DP  RH WIND       PRES   REMARKS
ALBANY         CLOUDY    63  54  72 S6        30.09F
NEW YORK CITY  PTSUNNY   70  58  65 SW13      30.15S
$$

ANZALL-291200-
MARINE OBSERVATIONS

STATION/POSITION TIME  TEMP    WIND        PRES    VSBY  WAVE
                       AIR SEA DIR/SP/G                  HT/PER
                 (UTC) (F)     (DEG/KT/KT) (MB)    (MI)  (FT/S)
BOSTON BUOY      0950   61 60  210/  8/ 10 1019.2          1
BUZZARDS BAY     1100   65     240/ 12/ 13 1021.6R
NANTUCKET SOUND  1050      66              1020.8R         1/ 4
MASS BAY-STELLWA 1004   62 61  220/  8/ 10 1018.6R         1
ISLE OF SHOALS   1100   61     220/  9/ 10 1018.9R
S OF BLOCK IS    1055      63                N/A           4/ 6
$$

......................KEY.........................
  SKY/WX - SKY CONDITION/PRESENT WEATHER
  TMP    - TEMPERATURE IN FAHRENHEIT
  DWPT   - DEWPOINT IN FAHRENHEIT
  RH     - RELATIVE HUMIDITY IN PERCENT
  WIND   - DIRECTION AND SPEED IN MPH
  PRES   - MEAN SEA LEVEL PRESSURE IN INCHES OF HG
  WCI    - WIND CHILL INDEX
  VSB    - VISIBILITY IN MILES
  HX     - HEAT INDEX
  TC     - TEMPERATURE IN CELSIUS
  VRB    - VARIABLE WIND DIRECTION
  N/A    - NOT AVAILABLE




USA.gov is the U.S. government's official web portal to all federal, state and local government web resources and services.